Location: Herm
(49.4830°N, 2.4500°W)
Time: 07:51:48
(UTC+00:00)

NOAA 15 - Pass Details

Date: 03 November 2021
Orbit: 797 x 813 km, 98.7° (Epoch: 08 December)

Event Time Altitude Azimuth Distance (km) Brightness Sun altitude
Rises 17:13:12 0° 115° (ESE) 3,331 7.4 -5.2°
Reaches altitude 10° 17:16:11 10° 97° (E) 2,404 6.5 -5.7°
Maximum altitude 17:19:43 18° 55° (NE) 1,885 6.0 -6.2°
Drops below altitude 10° 17:23:16 10° 13° (NNE) 2,413 6.8 -6.8°
Sets 17:26:17 0° 356° (N) 3,348 7.7 -7.3°
